Regional Weather Roundup
Issued by NWS Cleveland, OH

Home | Current Version | Previous Version | Graphics & Text | Print | Product List | Glossary On
Versions: 1 2 3 4 5 6 7 8 9 10 11 12 13 14 15 16 17 18 19 20 21 22 23 24 25 26 27 28 29 30 31 32 33 34 35 36 37 38 39 40 41 42 43 44 45 46 47 48 49 50
469
ASUS41 KCLE 011010
RWRCLE
OHIO REGIONAL WEATHER ROUNDUP
NATIONAL WEATHER SERVICE WILMINGTON, OH
600 AM EDT SAT OCT 01 2016

NOTE: "FAIR" INDICATES FEW OR NO CLOUDS BELOW 12,000 FEET WITH NO
SIGNIFICANT WEATHER AND/OR OBSTRUCTIONS TO VISIBILITY.

OHZ001>008-015>018-024>027-034-035-043-044-011100-
   NORTHWEST OHIO

CITY           SKY/WX    TMP DP  RH WIND       PRES   REMARKS
DEFIANCE       CLOUDY    61  58  90 E6        30.01S
FINDLAY        FAIR      58  55  90 E6        30.02S
TOLEDO EXPRESS CLOUDY    59  59 100 VRB5      30.03R
TOLEDO EXEC    CLOUDY    60  59  96 SE9       30.04R
LIMA           FAIR      55  54  96 SE6       30.02S
$$

OHZ009>014-019>023-028>033-038-089-011100-
   NORTHEAST OHIO

CITY           SKY/WX    TMP DP  RH WIND       PRES   REMARKS
CLE-HOPKINS    CLOUDY    61  55  81 S8        30.09R
CLE-LAKEFRONT  MOCLDY    60  55  83 E6        30.05S
CUY CO. ARPT   NOT AVBL
LORAIN-ELYRIA  CLOUDY    58  55  90 S5        30.07R
ASHTABULA      CLOUDY    57  57 100 SE9       30.10F
AKRON-CANTON   CLOUDY    59  55  87 SE8       30.08R
WOOSTER        CLOUDY    57  56  96 SE6       30.09R
MANSFIELD      CLOUDY    58  58 100 S8        30.06S
YOUNGSTOWN     LGT RAIN  57  55  93 E9        30.09S
$$

OHZ042-051>053-060>062-070>072-077>081-011100-
  SOUTHWEST OHIO

CITY           SKY/WX    TMP DP  RH WIND       PRES   REMARKS
CINC-COVINGTON CLOUDY    56  55  97 S7        30.02S
CINC-LUNKEN    FAIR      52  52 100 CALM      30.04R FOG
HAMILTON       CLOUDY    56  54  93 CALM      30.03S FOG
DAYTON         MOCLDY    54  52  93 E7        30.03S
WRIGHT-PAT AFB CLOUDY    54  54  99 E3        30.03R
DAYTON GENERAL MOCLDY    54  51  90 E5        30.02R
WILMINGTON     MOCLDY    52  51  97 CALM      30.03S
$$

OHZ036-037-039>041-045>050-054>059-063>069-073>076-082>088-011100-
  CENTRAL AND SOUTHEAST OHIO

CITY           SKY/WX    TMP DP  RH WIND       PRES   REMARKS
COLUMBUS       FAIR      54  54 100 SE3       30.04F
OSU AIRPORT    FOG       53  53 100 SE3       30.05S VSB 1/4
BOLTON FIELD   FOG       51  51 100 CALM      30.05S VSB 1/2
RICKENBACK AFB FOG       49  49 100 CALM      30.04F VSB 1
NEWARK         FOG       55  55 100 CALM      30.05F VSB 1/4
MARION         FAIR      53  52  96 SE6       30.05S FOG
LANCASTER      FAIR      51  51 100 E5        30.05F FOG
ZANESVILLE     CLOUDY    58  58 100 CALM      30.07S FOG
NEW PHILLY     CLOUDY    59  57  93 S3        30.09R
$$




USA.gov is the U.S. government's official web portal to all federal, state and local government web resources and services.